Terminal Aerodrome Forecast
Issued by NWS Sioux Falls, SD

Home | Current Version | Previous Version | Graphics & Text | Print | Product List | Glossary Off
Versions: 1 2 3 4 5 6 7 8 9 10 11 12 13 14 15 16 17 18 19 20 21 22 23 24 25

000
FTUS43 KFSD 240520
TAFSUX
TAF
KSUX 240520Z 2406/2506 34015G22KT 5SM BR OVC007
     FM240900 34014KT P6SM OVC008
     FM241600 33013KT P6SM OVC012
     FM242100 29008KT P6SM SCT020 BKN200
     FM250100 17007KT P6SM SCT015 BKN200=

USA.gov is the U.S. government's official web portal to all federal, state and local government web resources and services.